Theta_e
333 333 335 335 333 334 334 335 335 335 334 334 334 334 333 333 332 331 331 330 329 329 328 328 326 324 319 315 313 313 312 312 312 311 310 310 309 308 308 308 308 308 307 306 305 303 302 301 300 300 300 300 300 300 300 300 300 300 300 300 300 301 301 301 301 301 301 302 302 302 302 303 304 304 305 305 305 305 305 305 305 305 305 306 306
333 335 335 335 334 334 334 335 335 334 334 334 334 333 333 332 332 331 330 330 329 328 328 326 325 321 317 313 313 313 312 312 311 310 310 309 307 307 308 308 308 307 306 304 302 300 300 299 299 299 299 299 299 299 299 299 299 299 299 299 300 300 301 301 301 302 302 302 303 303 303 304 304 304 305 305 305 306 306 306 306 305 305 306 306
334 335 335 335 334 334 334 334 333 333 333 333 332 332 332 331 331 330 330 329 328 327 326 324 322 318 314 313 313 312 312 311 310 309 308 307 307 307 308 308 307 305 303 301 300 299 299 298 298 298 298 298 298 298 298 298 298 298 298 299 300 300 301 301 301 302 302 303 303 303 303 304 304 304 304 305 305 305 306 306 306 305 305 306 306
335 335 335 335 334 334 333 333 332 332 332 332 331 331 331 330 329 329 329 328 327 325 323 321 317 314 313 313 312 312 311 310 309 308 307 307 307 308 308 307 305 303 300 299 299 298 298 298 298 298 298 298 298 298 298 298 298 298 298 299 300 300 301 301 301 301 301 302 302 302 302 303 303 303 303 304 304 305 305 305 305 305 306 305 305
335 334 334 334 334 333 332 332 332 332 331 331 330 329 329 329 329 328 327 325 323 321 319 316 314 313 312 312 312 311 310 309 308 307 307 307 308 307 306 304 302 300 299 298 298 297 297 297 297 297 297 298 298 298 298 298 298 298 298 299 299 300 301 301 301 301 301 301 301 301 301 302 302 302 302 303 304 304 305 305 305 305 305 306 305
334 333 333 333 332 332 332 332 331 331 331 330 329 329 329 328 327 326 324 321 319 317 315 314 313 313 312 312 311 310 309 308 307 307 307 307 307 306 304 301 300 299 298 298 297 297 297 297 297 297 297 298 298 298 298 298 298 298 298 299 299 300 300 300 300 300 300 300 301 301 302 302 302 303 303 302 301 302 304 305 305 304 304 305 305
332 331 332 332 330 329 330 331 330 330 330 329 329 328 327 326 325 323 320 317 315 314 313 313 313 312 312 311 310 309 308 307 307 307 306 306 305 303 301 299 298 298 297 297 297 296 296 296 296 297 297 297 298 298 298 298 298 298 298 299 299 300 300 299 299 299 300 300 301 301 301 302 302 302 302 302 301 301 301 303 305 305 304 303 303
330 330 330 329 329 329 330 330 330 330 330 328 328 326 325 323 321 319 316 314 313 313 313 313 312 311 311 310 309 308 307 307 306 306 305 304 302 301 299 298 298 297 297 296 296 296 296 296 296 296 297 297 298 298 298 298 298 298 298 299 299 299 299 298 298 299 300 300 301 301 300 300 301 301 301 301 301 301 300 300 301 302 302 302 301
328 329 329 329 330 330 330 329 329 329 328 327 326 324 322 319 317 315 314 313 313 312 312 311 311 311 310 309 309 308 307 306 305 304 303 301 300 299 298 298 297 297 296 296 296 296 296 296 296 296 296 297 297 298 298 298 298 297 298 299 299 298 297 297 298 299 300 300 300 301 300 300 299 299 299 299 298 298 299 299 299 300 300 301 301
329 329 329 330 330 330 329 329 328 328 326 325 323 321 318 316 314 314 313 312 312 311 311 310 310 310 309 308 308 307 305 304 303 302 301 300 299 298 297 297 296 296 296 296 295 295 295 295 295 295 296 296 297 297 297 297 297 297 298 298 298 297 296 297 298 299 300 300 300 300 300 299 298 298 297 298 298 298 298 298 298 299 299 300 300
329 328 328 329 329 329 328 327 326 325 323 321 319 317 315 313 313 313 312 311 311 310 310 310 309 309 308 307 307 305 304 302 301 300 299 298 298 297 297 296 296 296 296 295 295 295 295 295 295 295 295 296 296 297 297 297 297 297 298 298 296 295 295 297 298 299 300 300 300 300 300 299 299 298 298 298 299 298 298 298 297 297 297 297 298
327 326 327 327 328 328 326 324 323 322 320 318 317 314 312 312 312 312 312 311 310 310 309 309 308 308 307 307 305 303 302 300 299 298 298 297 297 297 296 296 295 295 295 295 295 295 295 294 294 294 295 295 296 296 296 296 296 297 297 297 295 294 295 297 298 298 299 300 300 300 300 300 300 299 298 299 299 299 299 298 298 297 297 296 297
325 324 325 326 326 324 323 322 321 319 317 316 314 312 311 312 312 312 311 310 309 309 308 308 308 307 307 306 303 301 300 298 298 297 297 297 296 296 295 295 295 295 295 294 294 294 294 294 294 294 294 294 295 295 295 296 296 296 297 296 294 294 296 297 298 299 299 300 300 300 300 300 300 300 299 299 299 299 299 299 299 299 298 297 297
324 325 324 324 323 321 320 320 319 317 315 313 312 312 311 311 311 311 311 309 308 308 308 307 307 307 306 304 302 299 298 297 297 297 296 296 296 295 295 295 294 294 294 294 294 294 294 294 293 293 293 293 294 294 295 295 296 296 296 295 294 294 297 298 298 299 299 299 300 300 300 300 300 300 300 300 300 299 299 299 299 299 299 299 298
324 325 324 322 321 319 319 318 317 315 313 313 312 312 311 311 311 311 310 309 307 307 307 307 306 306 304 302 300 298 297 296 296 296 296 296 295 295 295 294 294 295 294 294 294 294 293 293 293 293 293 293 293 293 294 294 294 295 295 294 293 294 297 298 298 299 299 299 300 300 300 300 300 300 300 300 300 300 299 299 299 300 300 300 299
323 323 322 320 318 317 317 316 315 313 313 312 312 312 311 311 311 311 310 307 306 306 306 306 306 304 302 300 298 297 296 296 296 295 295 295 295 295 294 294 294 294 294 294 294 294 293 293 293 293 293 293 293 293 293 293 293 293 294 293 293 294 297 298 298 298 299 299 299 300 300 300 300 300 300 300 300 300 300 300 300 300 300 300 300
322 321 320 319 317 317 316 314 313 313 312 312 312 311 311 310 311 311 309 306 305 306 306 305 305 303 300 298 297 297 296 295 295 295 295 295 295 294 294 294 294 294 294 294 294 293 293 293 293 293 293 293 293 292 292 292 293 293 293 292 292 293 296 297 298 299 299 299 299 299 300 300 300 300 299 299 299 299 299 299 299 299 299 299 299
321 320 319 319 318 317 315 313 313 312 312 311 311 311 310 310 310 310 307 305 304 305 305 305 303 301 299 298 298 297 297 296 295 295 295 294 294 294 294 294 294 294 294 294 294 293 293 293 293 293 293 293 293 293 293 292 292 292 292 292 292 292 294 296 297 298 299 299 299 299 299 299 299 299 299 299 299 298 298 298 298 299 298 298 298
320 318 318 318 317 316 314 312 312 312 311 311 311 310 310 310 309 307 304 303 304 304 304 304 302 300 299 298 298 298 297 296 295 294 294 294 294 294 294 294 294 294 294 294 293 293 293 293 293 293 293 293 293 293 293 292 292 292 292 292 292 292 293 294 296 298 298 299 299 299 299 299 298 298 298 298 298 298 298 298 297 298 298 298 298
318 317 317 316 314 314 313 312 311 311 310 310 310 309 309 309 307 303 301 301 303 304 304 303 302 300 299 299 298 298 296 295 295 294 294 294 294 294 294 294 294 294 294 293 293 293 293 293 293 293 293 293 293 293 293 292 292 292 292 292 292 292 292 293 295 296 297 298 298 298 298 298 297 297 297 297 297 297 297 297 297 297 297 297 297
317 316 316 314 313 312 312 311 311 310 309 309 309 309 308 306 303 300 299 300 301 302 303 303 302 300 299 299 299 298 297 295 295 294 294 294 294 294 294 294 294 294 294 293 293 293 293 293 293 293 293 293 293 293 293 292 292 292 292 292 292 292 292 292 293 293 294 295 296 297 297 296 295 295 295 296 296 296 296 296 296 296 296 296 297
316 315 314 312 311 311 311 311 310 309 309 309 308 307 305 302 299 297 298 299 300 301 302 302 302 301 300 300 299 298 297 296 295 294 294 294 294 294 294 294 294 293 293 293 293 293 293 293 293 293 293 292 292 292 292 292 292 292 292 292 292 292 292 292 292 292 292 293 294 295 295 295 294 294 294 294 294 294 294 294 294 295 295 296 296
315 314 313 311 310 310 310 310 309 309 308 308 307 305 302 298 296 296 297 298 299 300 301 302 301 300 300 299 299 297 296 296 295 294 293 293 294 294 294 294 294 293 293 293 293 293 293 293 293 293 293 292 292 292 292 292 292 292 292 292 292 292 292 292 292 292 292 292 293 293 294 294 293 293 293 294 293 293 293 293 293 293 294 295 295
314 313 311 310 310 309 309 309 309 308 307 307 306 303 299 296 296 296 296 297 298 299 300 300 300 299 298 298 298 297 296 295 295 294 293 293 294 294 294 294 294 294 293 293 293 293 293 293 293 293 293 292 292 292 292 292 292 292 292 292 292 292 292 292 292 292 292 292 292 293 294 294 293 293 293 293 293 293 293 292 292 292 292 293 294
313 311 310 310 310 309 310 310 308 307 307 307 306 304 300 297 295 296 296 296 296 297 297 298 297 296 296 296 295 295 295 294 294 293 293 293 294 294 294 294 294 294 294 293 293 293 293 293 293 292 292 292 292 292 292 292 292 291 291 292 292 292 292 292 292 292 292 292 292 292 293 293 293 293 293 293 293 293 293 293 292 292 292 292 293
312 310 310 310 310 310 310 309 308 308 308 307 307 306 303 299 296 295 295 295 295 295 295 296 295 295 294 294 294 294 294 293 293 293 293 293 294 294 294 294 294 294 294 294 293 293 293 293 293 292 292 292 292 292 292 292 292 291 291 292 292 292 292 292 292 291 291 292 292 292 292 293 293 293 293 293 293 293 293 293 293 293 292 292 292
311 310 310 310 310 310 310 309 308 308 308 308 307 306 304 301 297 295 295 295 294 294 294 294 294 294 294 294 294 293 293 293 293 293 293 293 294 294 294 294 294 294 294 294 294 293 293 293 293 293 292 292 292 292 292 292 292 292 292 292 292 292 292 292 292 292 291 291 291 292 292 292 292 292 292 292 292 292 292 293 293 293 293 293 292
311 310 310 310 310 310 309 308 308 308 308 307 306 304 303 300 297 295 295 295 294 294 294 294 294 294 294 294 294 293 293 293 293 293 293 293 294 294 294 294 294 294 294 294 294 293 293 293 293 293 293 292 292 292 292 292 292 292 293 293 293 292 292 292 292 292 292 292 292 292 291 291 291 291 292 292 292 292 292 292 292 293 293 293 293
311 310 310 310 309 309 309 308 308 308 307 305 303 302 301 298 296 295 295 295 294 294 294 294 294 294 294 294 294 294 294 294 293 293 293 294 294 294 294 294 295 294 294 294 294 294 293 293 293 293 293 293 293 293 293 293 293 293 293 293 293 293 292 292 292 292 292 292 292 292 292 292 292 292 292 292 291 291 291 291 291 292 292 293 293
310 310 310 309 309 309 309 308 308 307 304 301 300 299 298 296 296 296 296 296 296 295 295 294 293 293 293 293 293 294 293 293 293 293 293 294 294 294 294 295 295 294 294 294 294 293 293 293 293 293 293 293 293 293 293 293 293 293 293 293 293 293 293 293 293 293 292 292 292 292 292 292 292 292 292 292 292 291 291 291 291 291 291 291 292
310 310 310 309 309 309 308 307 307 306 302 298 297 297 297 297 297 297 297 298 298 297 296 295 293 293 293 293 293 293 293 293 293 293 293 294 294 294 295 295 294 294 295 295 294 294 293 293 293 293 293 293 293 293 293 293 293 293 293 293 293 293 293 293 293 293 293 292 292 292 292 292 292 292 292 292 292 292 292 291 291 291 291 290 291
310 310 310 309 309 308 308 307 307 305 302 298 297 297 298 298 298 298 300 300 300 299 298 297 295 293 293 293 293 293 293 293 293 293 293 294 294 294 295 295 295 295 295 295 295 295 294 293 293 293 293 293 293 293 293 293 293 293 293 293 293 293 293 293 293 292 292 292 292 292 292 292 292 292 292 292 292 292 292 292 292 291 291 291 291
311 310 310 309 308 308 307 307 307 305 303 302 301 300 299 298 298 299 301 301 300 300 299 299 297 294 292 293 293 293 293 293 293 293 294 294 294 295 295 295 295 295 295 295 295 295 294 293 293 293 293 293 293 293 293 293 292 292 292 292 293 293 293 293 293 292 292 292 292 292 292 292 292 292 292 292 292 292 292 292 292 292 292 292 291
311 310 310 309 309 308 308 307 307 305 304 304 304 303 301 299 298 300 301 301 301 300 299 299 299 295 293 293 293 293 293 293 293 293 294 294 295 295 295 296 296 295 295 295 295 295 294 293 293 293 293 293 293 293 293 293 292 292 292 292 292 292 292 292 292 293 293 293 293 292 292 292 292 292 292 292 292 292 292 292 291 292 292 292 292
311 310 310 309 309 308 308 307 307 306 305 304 305 304 302 299 300 301 301 301 301 300 299 299 299 296 293 293 293 293 293 293 293 294 294 295 295 295 296 296 295 295 295 295 295 295 295 294 294 294 293 293 293 293 293 293 292 292 293 293 293 293 293 293 293 293 293 293 293 293 293 293 293 293 293 293 292 292 292 291 291 291 291 291 291
310 310 310 309 309 308 308 307 307 307 306 305 305 304 302 300 300 301 302 301 300 300 299 299 299 297 293 293 293 293 293 293 294 294 295 295 295 296 296 295 295 295 295 295 295 296 295 295 295 295 295 295 295 294 294 294 293 293 294 294 294 295 295 295 295 295 294 294 294 293 293 293 293 293 293 293 292 292 292 292 291 291 291 291 291
310 310 310 309 309 308 308 307 307 307 306 305 305 303 302 302 301 302 302 301 301 300 299 299 298 296 293 293 293 293 293 294 294 295 295 295 296 296 296 296 296 296 296 296 297 297 296 296 296 296 296 296 296 296 295 295 295 295 296 296 296 296 297 297 296 296 296 296 295 295 295 294 294 294 293 293 293 292 292 292 291 292 291 291 291
310 310 309 309 308 308 307 307 306 306 306 305 304 303 302 302 302 302 302 301 301 301 300 298 297 295 293 293 293 293 293 294 294 295 295 296 296 296 296 296 297 297 297 297 297 297 297 297 297 297 297 297 297 297 296 296 296 297 297 297 297 297 297 297 297 297 297 297 297 296 296 296 296 295 295 295 294 294 294 293 292 292 292 292 292
309 309 309 309 308 308 307 307 306 306 305 304 303 303 303 303 302 302 301 301 301 300 298 295 294 294 293 293 293 292 293 294 294 295 295 296 296 296 297 297 297 297 297 297 297 297 297 297 297 297 297 297 297 297 297 297 297 297 297 297 297 297 297 297 297 297 297 297 297 297 297 297 297 297 296 296 296 296 296 295 295 294 294 294 294
309 309 308 308 308 307 307 306 306 305 304 304 303 303 303 302 302 302 301 301 300 298 295 293 293 293 293 293 293 293 293 294 295 296 296 296 297 297 297 297 298 298 298 297 297 297 297 297 297 297 297 297 297 297 297 297 297 297 297 297 297 297 297 297 297 297 297 297 297 297 297 297 297 297 297 297 297 296 296 296 296 296 295 295 295
309 308 308 308 307 307 306 306 305 304 303 303 303 303 302 302 302 302 301 301 299 295 293 293 293 293 293 294 294 295 296 296 296 297 297 297 297 298 298 298 298 298 298 298 297 297 297 297 297 298 298 298 298 297 298 297 297 297 297 297 297 297 297 297 297 297 297 297 297 297 297 297 297 297 297 297 297 297 297 297 296 296 296 296 296
308 307 307 306 306 306 305 305 304 304 303 303 303 303 302 302 302 302 301 300 296 293 292 293 294 295 296 297 297 297 298 298 297 297 297 297 297 297 298 298 298 298 298 298 297 297 297 297 298 298 298 298 298 298 298 298 298 297 297 297 297 297 297 297 297 297 297 297 297 297 297 297 297 297 297 297 297 297 297 297 297 297 297 297 296
306 305 305 305 305 305 304 304 304 304 303 303 303 303 303 302 302 301 299 297 294 292 293 295 297 298 299 299 299 299 299 298 298 298 298 297 296 296 297 298 298 298 298 298 298 298 298 298 298 298 298 298 298 298 298 298 298 297 297 297 297 297 297 297 297 297 297 297 297 297 297 297 297 297 297 297 297 297 297 297 297 297 297 297 297
305 304 304 305 304 304 304 304 304 304 303 303 303 303 302 302 300 299 296 294 293 294 296 297 298 299 299 299 299 299 299 299 299 299 298 298 297 297 298 298 298 298 298 298 298 298 298 298 298 298 298 298 298 298 298 297 297 297 297 297 297 297 297 297 297 297 297 297 297 297 297 298 298 298 298 298 298 298 298 297 298 298 297 297 297
304 304 304 304 304 304 304 304 303 303 303 303 302 302 301 300 297 295 294 294 296 297 298 299 299 299 299 299 299 300 299 299 299 299 299 299 299 299 299 299 299 299 298 298 298 298 298 299 299 298 298 298 298 298 298 298 297 297 297 297 297 297 297 298 298 298 298 298 298 298 298 298 298 298 298 298 298 298 298 298 298 298 298 298 298
304 304 304 304 304 304 304 303 303 302 301 301 300 299 298 296 295 294 296 298 299 299 299 299 299 299 299 300 300 300 300 299 299 299 299 299 299 299 299 299 299 299 299 299 299 299 299 299 299 299 298 298 298 298 298 298 298 298 298 298 298 298 298 298 298 298 298 298 298 298 298 298 298 298 298 298 298 298 298 298 298 298 298 298 298
304 304 304 303 303 303 303 302 300 298 297 297 296 295 294 294 295 297 299 300 299 299 300 300 299 299 300 300 300 300 300 299 299 299 299 299 299 299 299 299 299 299 299 299 299 299 299 299 299 299 299 299 299 299 299 299 298 298 298 298 298 298 298 298 298 297 298 298 298 298 298 298 298 298 298 298 298 298 298 298 298 298 298 298 298
304 304 303 302 302 302 301 298 296 294 294 293 293 293 295 297 298 299 300 299 299 299 300 299 299 300 299 299 299 299 299 299 299 299 299 299 299 299 299 300 299 300 300 300 300 300 300 300 299 299 299 299 299 298 298 298 298 298 298 298 298 298 298 298 298 298 298 298 298 298 298 298 298 298 298 298 297 297 297 297 297 297 297 297 297
304 303 302 302 302 300 297 294 293 294 295 294 294 295 297 299 299 299 299 299 299 299 300 300 300 300 299 299 299 299 299 299 299 299 300 300 300 300 300 300 300 300 300 300 300 300 300 299 299 299 299 298 298 298 298 298 298 298 298 298 298 298 298 298 298 298 298 298 298 298 298 297 297 297 297 297 297 297 297 297 297 297 297 297 297
303 302 302 302 300 297 294 294 296 298 299 298 298 298 298 299 299 299 299 299 299 299 300 300 300 299 300 300 300 300 300 300 300 300 300 300 300 300 300 300 300 300 300 300 300 299 299 299 299 298 298 298 298 298 298 298 298 298 298 298 298 298 298 298 298 298 298 298 297 297 297 297 297 297 297 297 297 296 296 296 296 296 296 296 296
303 302 302 301 298 296 296 297 299 300 300 300 299 299 299 299 299 299 299 299 299 299 300 300 299 300 300 300 300 300 300 300 300 300 300 300 300 300 300 300 300 300 300 299 299 299 299 298 298 298 298 298 298 298 298 298 298 298 298 298 298 298 298 298 297 297 297 297 297 297 297 297 297 296 296 296 296 296 296 295 295 294 294 293 292
Wind_Speed
17 18 18 17 17 17 16 15 15 15 16 16 17 17 16 14 12 10 9 9 10 11 12 13 13 13 10 8 5 2 0 1 2 4 5 6 7 7 7 6 7 8 9 9 10 11 12 12 12 13 13 14 14 14 15 16 17 17 18 19 21 22 23 23 24 29 29 28 28 27 26 27 26 27 28 28 27 27 26 25 25 23 22 21 20
17 19 20 19 18 16 15 15 14 16 18 19 19 17 14 13 11 9 9 10 11 11 12 12 13 11 9 6 3 1 2 3 4 5 6 6 6 6 5 5 7 8 9 9 11 12 12 13 13 14 14 14 15 16 18 18 19 20 21 22 23 24 24 24 25 29 31 31 30 30 29 29 30 31 31 32 31 28 25 24 25 25 23 21 20
20 22 21 20 18 17 17 16 15 17 20 19 16 14 13 12 12 11 11 11 11 11 11 12 11 9 7 4 2 3 4 4 5 5 6 6 6 6 5 6 7 8 9 10 12 13 13 13 14 15 15 15 17 18 19 20 21 22 23 24 24 25 24 25 27 29 31 33 33 34 34 33 34 35 35 35 34 33 30 28 29 28 26 23 21
22 22 21 21 19 19 20 19 16 17 19 16 15 15 14 13 12 11 11 11 11 11 11 11 9 7 5 3 4 4 4 5 5 5 5 5 5 6 6 6 7 8 10 12 13 13 13 14 15 16 16 16 18 20 21 22 23 24 25 26 26 26 27 27 29 30 32 34 34 36 36 36 36 36 37 36 35 35 34 34 34 33 30 28 25
23 23 22 22 22 21 21 18 16 17 18 18 17 15 14 12 12 12 12 11 11 10 10 9 7 5 5 5 4 4 4 4 4 4 4 5 5 5 6 7 8 10 11 12 13 13 14 15 16 17 17 19 20 22 23 24 25 26 28 28 28 29 30 30 31 32 33 35 36 36 36 36 36 37 38 39 38 37 36 36 37 37 35 32 29
23 24 23 23 24 24 21 18 18 19 19 17 15 13 12 12 12 12 11 10 9 9 8 7 6 6 6 6 5 4 4 4 4 4 4 5 5 6 7 8 9 11 11 12 13 14 15 16 17 18 18 20 21 22 23 25 26 28 29 30 30 31 32 33 33 34 35 36 37 37 37 37 38 38 39 40 40 40 39 38 37 38 38 36 33
24 24 24 24 26 25 22 20 20 18 16 14 14 14 14 13 12 11 10 9 8 8 8 8 8 8 7 7 6 4 3 3 3 4 5 6 6 7 8 9 10 11 11 12 14 15 16 17 18 19 19 20 21 23 24 25 26 28 29 30 31 32 33 34 34 35 36 37 38 38 38 37 39 39 39 39 39 39 40 40 40 39 39 38 36
27 26 26 26 24 22 21 20 18 16 15 16 16 15 14 13 12 11 10 9 9 9 9 11 12 11 9 7 5 3 3 3 4 6 7 7 8 8 9 9 10 11 11 13 15 16 18 19 20 20 20 20 21 22 23 25 26 28 29 29 30 31 32 34 35 36 37 38 38 38 37 37 38 40 41 41 41 39 39 39 40 40 39 38 36
28 27 26 24 20 19 18 17 16 17 17 17 16 14 14 13 12 12 12 11 11 12 13 13 12 10 8 6 5 4 4 5 7 8 8 8 8 8 9 10 10 11 12 14 16 18 18 19 20 20 20 20 20 20 22 23 26 27 28 29 30 31 32 33 34 36 37 37 37 38 38 38 39 39 41 41 40 39 38 37 37 39 39 38 35
26 25 26 24 19 17 17 17 18 18 18 16 15 14 14 14 14 14 13 12 13 14 14 11 9 8 7 7 6 5 6 8 10 10 9 9 8 8 9 10 11 12 14 16 17 19 19 20 20 20 19 19 18 19 20 22 24 25 26 27 29 30 31 32 33 35 35 35 35 36 37 38 37 38 39 39 38 38 39 39 39 39 40 40 37
28 28 28 25 19 17 19 19 19 18 16 15 14 14 15 15 15 14 13 13 13 13 11 10 10 9 8 7 6 6 8 11 11 11 10 9 8 8 9 10 11 13 15 17 18 19 20 20 20 20 19 18 18 18 19 21 22 23 24 25 27 28 28 30 31 32 33 33 33 34 35 36 36 37 38 39 39 39 40 39 39 40 41 42 40
30 29 28 23 18 17 18 18 17 15 13 12 13 15 16 16 16 13 12 12 13 13 12 12 12 10 8 7 7 9 11 12 12 11 10 9 8 8 9 10 11 14 16 18 19 19 20 20 20 20 20 19 18 18 19 21 21 22 22 24 26 26 25 25 27 29 30 30 30 31 33 34 36 36 37 38 39 40 40 40 41 40 40 39 38
29 27 24 19 17 17 17 17 16 13 13 15 16 15 15 15 14 12 13 13 13 14 14 13 12 10 8 8 9 12 13 14 13 11 10 10 9 9 9 11 13 15 17 18 18 19 19 19 19 20 20 20 20 19 20 20 20 20 21 23 25 25 24 24 24 26 27 28 28 30 31 33 34 36 36 37 38 39 40 41 42 41 40 38 36
26 22 18 17 18 18 17 16 14 14 17 19 18 15 14 14 13 12 12 12 14 15 15 13 12 10 9 9 11 14 15 15 13 12 11 10 9 9 10 12 14 15 17 17 18 18 18 18 18 20 20 21 21 21 20 19 19 20 21 23 25 25 25 25 26 26 26 26 27 28 29 31 32 34 35 36 37 38 39 40 41 41 40 39 37
23 19 17 18 19 19 17 16 16 17 20 21 18 15 14 14 13 12 11 12 14 15 15 13 12 11 10 11 13 16 16 15 14 12 11 10 9 10 11 12 13 15 16 17 17 17 17 17 18 19 20 21 22 21 21 20 20 20 21 23 24 25 26 26 27 27 26 26 27 28 28 29 31 32 34 35 36 37 37 38 39 40 40 40 39
21 18 18 19 19 17 17 17 19 20 22 20 18 16 15 14 13 11 11 13 15 15 14 13 11 12 13 13 15 17 17 16 14 12 11 10 9 10 10 11 12 14 15 16 16 16 16 16 17 18 19 20 21 21 21 21 21 21 22 22 23 25 25 26 26 26 26 26 27 28 28 29 30 31 32 34 35 37 37 38 39 40 41 42 41
17 17 17 17 17 16 17 19 20 21 21 20 18 17 16 14 12 10 11 15 17 16 15 14 12 13 14 15 16 17 17 16 14 12 11 10 9 8 9 10 11 12 13 14 14 14 15 16 16 17 18 20 21 21 21 21 21 22 22 22 23 25 25 25 25 25 26 26 27 27 28 28 29 30 31 33 34 36 38 39 40 41 43 43 43
16 17 17 17 17 17 18 20 21 21 21 20 19 18 16 13 12 11 12 16 18 18 16 16 15 14 15 15 15 15 15 15 13 12 10 9 8 8 8 9 10 11 12 12 13 13 14 15 15 16 17 19 20 20 20 21 21 22 23 22 23 25 26 25 25 25 25 25 26 27 27 28 29 30 31 32 34 35 37 38 39 40 41 42 42
18 18 18 19 19 18 19 20 20 21 20 19 18 17 15 13 13 14 15 17 19 19 17 17 17 16 16 15 13 12 14 15 13 11 10 9 7 7 7 8 8 9 10 11 11 12 13 13 14 16 17 17 18 18 19 20 21 22 23 23 24 25 25 24 24 24 24 25 26 27 27 28 29 30 31 32 33 34 35 36 37 38 40 40 40
20 19 19 20 20 19 18 19 20 20 19 18 17 16 14 14 15 17 18 19 20 20 19 17 17 18 17 15 13 11 12 14 13 10 9 8 7 7 7 6 7 8 8 9 10 11 11 12 13 15 16 16 17 17 17 18 20 21 22 23 24 24 24 23 23 23 24 24 25 26 26 27 27 28 30 31 32 32 33 34 35 36 37 38 38
19 19 18 19 21 20 18 18 19 19 17 17 16 15 14 15 17 19 20 21 21 21 20 18 18 18 17 15 13 12 11 11 11 10 9 8 7 7 6 6 6 6 7 8 9 9 10 11 12 14 14 15 15 16 16 17 18 19 20 22 22 23 23 23 22 22 23 23 24 24 25 26 28 29 30 31 32 33 33 33 34 35 35 36 37
18 17 17 20 22 21 20 19 19 18 17 16 16 16 16 17 19 20 20 21 21 20 20 19 18 18 17 14 12 12 11 10 9 9 9 7 6 6 5 5 5 5 6 7 7 9 10 11 11 12 13 14 14 14 15 15 16 17 19 20 20 20 21 22 22 23 23 23 24 25 26 28 29 30 31 32 33 33 33 34 34 34 34 34 35
17 16 19 22 23 22 21 20 19 18 17 17 17 18 18 19 19 19 19 20 20 20 20 19 18 17 16 14 12 11 11 10 9 9 8 7 5 4 4 4 4 4 5 6 7 8 9 10 11 11 12 12 12 13 14 14 15 16 17 17 18 19 20 21 22 23 24 24 25 26 26 28 29 30 30 31 31 32 32 33 33 33 33 33 33
17 18 22 24 24 23 22 20 19 18 18 19 18 18 19 19 19 18 18 18 19 19 19 18 16 15 15 14 13 12 11 11 10 9 8 7 5 4 3 3 3 3 4 5 6 8 9 9 10 11 11 11 11 12 12 13 14 15 16 16 17 18 19 20 21 23 24 25 25 25 25 26 27 28 28 29 29 29 30 31 32 32 31 31 32
19 22 25 26 25 24 23 20 19 20 19 18 18 18 19 20 19 19 18 17 17 17 17 17 15 14 14 13 13 12 11 11 10 10 9 7 6 4 3 3 2 2 3 5 6 7 8 9 10 10 10 10 10 11 11 12 13 14 15 15 16 17 18 19 20 21 23 25 25 24 24 24 25 25 26 26 27 28 29 30 31 31 31 30 30
22 25 27 26 25 25 24 22 21 19 18 16 15 15 16 18 19 19 18 17 16 16 16 16 15 14 14 13 13 13 12 12 11 10 9 8 7 5 4 3 2 1 3 4 5 7 7 8 9 9 9 9 10 10 11 12 13 13 14 15 15 16 17 19 20 21 22 23 23 23 23 23 23 23 24 25 27 29 30 30 31 32 32 32 32
24 27 27 26 26 25 24 23 22 20 18 17 15 14 14 16 18 18 18 17 17 16 15 16 15 15 14 14 13 13 12 12 11 10 9 8 7 6 4 3 2 1 2 3 5 6 7 7 7 8 9 9 9 10 11 11 12 12 13 14 15 16 17 18 19 20 21 22 22 22 22 22 23 24 25 26 27 28 29 30 30 31 32 33 33
25 27 27 26 26 25 24 23 22 21 19 18 16 16 16 17 17 16 15 15 15 15 15 15 14 14 13 13 13 13 13 12 11 10 10 9 7 6 5 3 2 1 1 3 5 6 6 6 7 7 8 8 9 9 10 10 11 12 12 13 14 15 16 16 17 18 19 20 21 22 22 22 22 23 24 25 27 28 29 29 29 30 31 32 33
27 28 27 26 26 25 24 23 22 22 21 19 18 17 16 16 15 13 12 11 10 10 11 12 12 11 11 11 11 10 10 11 11 10 10 9 8 6 5 3 2 1 1 2 4 5 5 5 6 6 6 7 7 8 9 9 10 11 12 13 14 14 15 15 16 17 18 19 20 21 22 22 22 23 24 25 26 27 28 29 29 30 30 31 32
28 29 27 26 26 25 25 24 23 22 21 21 22 21 19 17 14 12 13 13 11 10 9 9 10 10 10 10 9 8 7 9 11 10 10 9 8 7 5 4 3 2 0 2 3 3 4 4 5 5 5 6 7 8 8 9 9 10 12 13 13 14 15 15 16 17 17 18 19 20 20 21 22 23 24 25 25 26 27 28 28 29 30 31 32
30 29 28 26 26 25 25 24 24 22 21 23 24 23 22 20 17 15 15 15 14 12 10 9 10 10 10 10 11 10 11 11 11 11 10 10 8 7 6 5 3 2 1 2 3 3 3 4 5 5 6 6 7 8 9 9 10 11 12 13 13 14 15 15 16 16 16 17 17 18 19 20 20 22 23 24 25 25 25 27 27 28 30 31 31
29 29 27 26 25 24 24 24 23 23 23 24 23 22 22 21 20 19 19 16 14 12 10 9 9 10 11 11 10 10 11 11 11 11 10 9 8 7 6 5 4 3 1 1 2 3 4 5 5 6 6 6 7 8 9 10 10 11 12 13 13 14 15 15 16 16 17 17 17 17 18 19 19 20 21 22 23 24 24 25 26 27 28 29 30
26 26 26 25 24 24 24 24 23 23 24 24 23 22 21 21 21 22 21 18 15 13 11 9 8 9 10 11 11 10 10 11 11 11 10 9 8 7 7 6 4 3 2 1 1 2 4 4 5 6 6 7 8 9 9 10 10 11 12 13 14 14 15 16 16 17 17 17 18 18 19 19 19 20 21 21 22 23 23 24 25 26 27 28 29
23 24 24 23 23 23 24 24 23 23 23 23 23 21 20 20 21 21 21 19 17 16 14 11 10 9 10 11 11 11 12 12 12 11 10 9 9 8 7 6 4 3 2 2 1 2 3 4 5 6 7 8 9 9 9 10 11 11 12 13 14 15 16 16 17 17 18 18 19 19 19 20 20 21 21 21 22 22 23 24 24 25 26 26 27
23 22 21 20 20 22 23 24 23 23 23 23 22 21 20 20 20 19 19 18 17 17 16 13 11 10 11 12 12 12 13 13 12 11 10 9 9 8 7 6 5 3 2 1 0 2 3 5 5 7 8 8 9 10 10 10 11 12 12 13 14 15 15 16 17 17 18 18 19 19 20 21 21 21 21 22 22 23 23 24 24 24 25 25 25
23 22 21 20 20 21 22 23 23 22 22 23 22 21 21 20 19 17 17 17 16 15 14 13 12 11 12 13 13 14 14 14 13 12 11 9 9 8 7 5 4 3 2 2 3 4 5 6 7 8 8 9 9 10 10 10 11 11 12 12 13 14 14 15 16 16 17 18 18 19 20 21 21 22 22 22 22 23 24 24 25 25 25 25 25
23 22 21 21 21 21 22 22 22 21 21 21 21 22 22 20 18 17 17 16 15 13 12 12 13 13 14 15 15 15 15 14 14 13 11 10 9 8 7 5 4 3 3 3 3 4 5 6 7 8 9 9 10 10 10 10 10 10 11 12 12 13 14 15 15 15 16 16 17 18 19 19 20 21 22 22 22 23 23 24 24 24 25 25 25
22 21 20 20 21 22 22 22 22 21 20 21 22 23 22 20 18 16 16 15 14 13 12 13 14 15 16 16 15 15 15 15 15 14 12 11 10 9 7 6 5 4 4 3 2 2 3 5 6 7 8 9 9 10 9 9 9 10 11 11 12 13 13 14 14 15 15 16 17 17 18 19 20 21 21 22 22 23 23 23 23 24 24 24 24
21 20 19 19 20 21 21 22 22 22 22 22 23 23 21 19 18 17 15 14 14 13 14 14 15 16 15 15 15 16 16 16 14 13 12 11 10 9 8 7 6 4 3 2 1 0 1 2 3 4 5 6 7 8 8 8 8 9 10 10 11 12 13 13 14 15 15 16 17 18 18 19 20 21 21 22 22 23 23 23 23 23 23 23 23
20 20 19 19 20 20 21 22 22 22 23 24 24 23 20 18 17 16 15 15 14 14 15 15 15 15 15 15 15 15 14 13 12 11 11 11 10 9 8 8 7 5 3 2 2 2 1 0 1 2 3 4 5 6 6 6 7 8 9 10 11 12 13 14 15 16 16 17 18 19 19 20 20 21 21 22 22 23 23 23 23 23 23 22 23
19 19 19 20 20 21 21 22 23 23 24 24 23 21 19 17 16 15 15 15 15 15 15 15 15 15 16 16 14 13 12 10 9 10 10 11 11 11 10 9 7 6 5 4 3 3 2 1 1 2 3 4 5 7 8 8 9 10 11 12 13 14 15 16 16 17 18 18 19 20 21 21 22 22 23 23 23 24 24 25 24 24 24 24 24
17 18 19 20 21 21 22 23 23 24 23 23 21 19 18 17 16 15 15 15 15 15 15 16 17 17 17 16 14 13 12 10 9 10 11 12 13 13 11 9 7 6 5 4 4 4 3 3 3 4 4 5 6 8 9 11 12 14 15 16 16 17 18 19 19 20 21 21 22 23 24 24 25 25 26 26 26 26 26 27 27 26 26 26 26
16 16 18 19 20 21 22 23 23 22 22 20 19 18 18 17 16 16 16 16 16 17 18 19 19 18 16 15 13 12 11 10 9 9 9 9 10 10 9 8 6 6 5 5 4 5 5 5 5 5 6 7 9 10 11 13 14 16 18 19 20 21 22 22 23 24 24 25 25 25 25 26 27 28 28 28 28 28 28 29 29 28 28 28 28
16 16 17 18 19 20 20 20 20 19 19 18 18 18 18 18 17 18 18 19 19 20 21 20 18 16 15 14 12 11 10 9 9 7 7 7 7 7 7 6 6 5 6 5 5 6 7 7 7 8 8 10 12 14 15 17 18 19 20 21 22 23 23 24 25 26 27 27 27 27 27 27 28 29 30 30 30 31 31 31 31 31 31 31 31
17 17 16 17 18 18 18 18 17 17 17 18 19 19 19 19 19 20 21 22 22 22 20 18 16 15 14 14 13 12 10 9 8 8 7 7 6 6 5 5 6 6 7 7 8 9 10 10 11 11 12 13 15 16 17 18 18 19 20 21 23 24 24 25 26 27 28 28 29 28 28 28 28 29 31 32 32 33 33 33 33 34 33 33 34
20 19 18 17 17 16 16 15 15 16 17 18 19 20 20 21 23 23 23 22 21 20 18 16 15 14 14 13 13 12 10 9 9 9 8 8 7 7 6 7 8 9 10 10 11 12 12 13 14 15 16 16 17 18 18 19 19 20 21 22 23 25 25 26 27 27 28 28 28 29 29 29 29 30 31 32 33 33 34 34 34 35 36 36 36
21 20 19 18 17 16 15 15 16 17 18 19 19 21 23 24 25 24 22 20 19 18 18 16 15 14 13 13 13 12 11 10 10 10 10 10 9 9 9 9 10 11 11 12 13 13 14 15 17 18 18 19 19 19 20 21 21 22 22 23 24 25 26 26 27 27 28 28 29 30 31 31 32 32 33 33 34 34 35 35 36 37 37 38 38
19 18 18 18 16 15 14 15 16 18 19 19 21 23 25 24 23 21 20 18 17 18 18 17 15 14 13 13 12 12 12 11 11 10 10 10 9 9 10 11 11 11 12 12 13 13 14 15 17 18 18 19 19 19 20 20 21 22 22 23 24 25 26 27 28 29 30 30 31 32 33 34 34 35 35 35 36 36 36 37 37 38 39 39 40
17 17 17 16 15 14 15 16 19 21 20 20 21 23 23 21 19 19 18 17 17 17 16 15 14 13 12 11 12 12 12 11 10 10 9 9 9 10 11 11 11 11 12 12 13 14 15 16 16 17 17 17 18 18 19 19 20 21 22 24 25 27 28 29 30 31 32 33 33 34 35 35 36 37 37 38 38 38 38 38 38 39 39 40 40
16 17 17 16 14 15 17 19 21 21 20 19 20 21 20 19 18 18 17 16 16 16 15 13 13 13 12 11 12 13 12 11 11 10 9 9 10 11 11 11 11 11 12 13 14 15 15 15 15 16 17 17 18 18 19 19 21 22 24 26 28 30 32 32 32 33 34 34 35 36 37 38 38 39 39 40 40 40 40 40 40 40 40 40 40
16 16 16 16 16 19 21 21 20 20 19 18 18 19 19 18 18 17 17 15 15 15 14 14 13 13 13 13 13 13 12 12 11 11 10 10 11 11 11 11 11 12 12 13 13 14 14 15 16 17 18 19 19 20 21 22 24 26 28 30 31 33 33 34 34 34 35 36 37 38 39 39 40 40 40 40 41 41 41 41 41 40 40 40 40
Wind_Direction
211 213 213 208 209 212 213 208 202 200 199 199 201 202 205 212 218 230 248 265 276 283 290 298 303 304 299 289 283 286 47 78 40 26 21 20 21 17 16 21 22 23 22 19 21 25 25 25 25 27 26 21 21 21 21 20 17 17 18 16 18 15 9 7 358 356 5 8 1 1 360 357 358 358 356 354 350 347 344 340 337 335 330 322 313
212 215 213 210 210 208 207 207 204 200 198 197 197 198 205 216 226 240 252 262 271 277 285 293 295 292 284 272 255 164 110 75 50 39 31 22 19 21 29 37 31 26 25 27 33 35 32 31 33 33 31 30 32 31 29 29 26 25 26 23 23 21 13 9 5 360 4 8 5 4 7 5 2 2 2 360 358 356 353 349 346 346 342 333 322
211 214 212 210 208 202 199 199 199 197 195 194 195 202 213 221 226 237 247 255 264 273 282 285 282 275 262 238 179 128 93 67 54 43 30 20 25 41 52 49 37 32 36 40 42 41 37 38 41 42 40 37 38 38 35 33 31 29 29 27 24 22 17 12 9 4 3 6 6 3 5 6 3 0 0 359 358 358 359 358 356 355 353 346 335
211 214 212 207 202 196 190 186 186 192 195 198 206 212 216 218 224 238 247 255 263 269 273 270 262 253 227 176 135 109 83 68 56 39 29 33 50 63 61 52 48 47 49 48 46 42 40 43 48 48 44 42 41 41 37 34 33 31 29 28 25 22 20 16 13 9 4 5 7 5 2 2 2 360 358 356 357 358 357 356 355 355 356 354 349
217 213 207 199 191 185 181 178 183 194 198 203 207 208 212 220 231 243 249 256 261 259 255 246 233 209 168 139 120 103 87 71 54 40 46 64 73 71 66 61 60 59 56 52 49 46 44 47 51 49 44 43 42 40 37 34 32 30 27 25 24 23 21 19 16 13 9 6 7 7 5 2 3 2 360 358 358 358 357 355 354 353 354 355 354
214 203 198 194 186 178 176 182 188 192 195 200 207 214 222 230 236 242 246 248 246 234 221 209 190 165 149 137 121 105 91 74 57 58 77 90 88 78 73 70 67 63 60 56 52 50 50 50 51 49 45 44 42 39 37 33 29 27 25 23 23 21 20 19 16 13 11 9 7 7 7 6 5 5 4 2 359 357 356 355 355 354 353 353 354
203 196 193 190 183 174 175 183 186 188 197 211 223 227 228 232 235 236 232 222 209 198 189 179 163 154 150 139 124 109 92 78 77 92 100 99 93 85 79 74 69 65 61 59 58 55 54 53 51 49 45 42 40 38 35 32 27 25 24 23 22 20 18 17 16 13 11 11 10 8 8 8 7 6 5 4 2 1 359 355 354 354 354 355 356
192 188 185 181 179 178 179 181 183 195 211 217 221 224 226 229 226 217 204 188 177 171 168 164 157 152 148 138 129 121 107 96 98 107 108 102 95 89 84 77 70 66 63 62 63 60 57 56 53 49 45 40 37 34 31 29 26 24 24 23 22 20 18 15 14 14 13 12 12 12 11 10 8 7 7 6 4 4 3 359 355 355 356 358 1
186 182 182 183 184 187 187 188 196 208 214 216 220 225 222 215 203 189 179 167 159 154 153 155 155 154 152 147 141 130 117 112 111 110 106 102 98 91 86 79 72 69 68 67 67 64 61 58 54 50 46 42 38 34 30 27 25 24 24 23 21 19 17 15 13 14 15 15 15 15 15 13 10 9 9 9 7 5 5 4 0 360 359 359 4
190 184 188 190 191 195 200 206 211 211 214 219 223 219 208 194 181 171 161 151 149 149 149 151 153 154 154 148 138 128 122 121 118 114 109 105 101 92 85 80 75 72 71 71 70 68 64 60 55 51 46 42 39 36 32 29 27 26 25 22 20 18 16 15 15 14 16 18 17 17 18 17 15 14 13 13 13 11 10 9 6 5 4 2 6
190 187 189 189 191 201 206 207 208 211 217 219 211 202 193 180 169 159 145 140 143 147 149 150 151 152 150 142 132 129 129 125 122 120 117 113 105 95 85 79 77 75 74 73 72 69 66 61 57 52 47 44 41 38 35 33 31 29 26 23 21 19 17 15 14 15 17 20 20 19 21 20 20 20 18 17 18 17 15 14 11 10 9 5 4
184 185 187 184 188 200 203 202 205 211 213 203 193 190 182 170 162 151 139 139 144 145 147 150 153 154 149 138 133 135 132 128 128 127 124 119 109 96 86 80 78 78 76 74 72 69 66 62 58 53 49 47 45 42 39 36 33 29 26 24 23 22 21 17 14 14 18 21 21 22 22 22 21 20 18 17 18 18 17 18 17 14 12 9 6
180 182 182 182 188 196 200 202 203 204 195 185 184 182 171 162 155 144 137 139 144 147 151 155 156 153 144 138 139 139 135 133 134 132 127 120 109 97 88 84 81 79 76 74 72 70 66 62 59 55 52 50 48 46 42 37 33 29 26 24 24 24 25 23 20 19 20 21 22 22 22 22 21 20 18 17 18 19 18 18 19 18 17 16 13
181 181 182 189 194 195 199 201 200 194 184 181 181 176 168 160 150 140 137 141 148 153 155 158 156 148 142 143 144 141 137 136 137 134 127 119 109 99 91 85 81 78 76 73 71 69 67 62 58 55 53 52 50 47 43 37 33 29 26 24 24 25 26 26 24 24 24 22 22 22 22 22 22 21 20 20 20 21 20 18 19 20 20 22 20
181 182 191 199 198 197 198 198 195 186 179 178 179 175 169 162 150 143 141 144 151 157 158 159 155 146 144 149 148 144 139 138 137 134 128 120 110 100 91 83 80 77 74 71 69 67 64 60 57 54 53 51 49 46 42 38 34 30 28 27 27 29 29 28 26 25 25 24 23 23 23 24 25 25 23 23 23 25 24 22 21 20 20 22 22
179 184 196 199 197 196 195 192 189 182 177 178 179 172 167 162 155 150 146 148 155 159 160 160 156 148 148 153 152 146 140 138 138 135 130 121 109 98 88 82 78 76 73 70 66 63 61 58 56 54 51 49 47 44 41 39 37 35 33 31 31 34 35 33 31 29 28 27 26 26 26 28 28 27 26 25 24 25 26 26 25 23 22 21 21
184 189 197 198 198 197 193 190 186 181 178 178 174 169 167 166 162 157 153 154 159 163 163 159 154 150 152 155 153 146 140 138 139 137 130 120 109 98 88 81 77 74 71 68 65 61 60 58 55 52 50 48 45 43 42 41 39 38 37 35 34 36 38 38 35 33 32 31 30 29 30 30 30 29 28 27 26 25 25 25 25 25 23 21 19
191 191 192 197 203 201 194 189 184 180 178 174 170 170 171 171 166 158 159 161 161 164 165 157 151 153 155 155 153 146 140 138 137 135 128 120 112 100 88 79 75 73 69 66 63 61 59 57 54 51 49 47 44 42 41 40 39 39 38 35 34 35 37 37 37 37 36 35 34 32 31 30 30 30 29 29 27 26 26 26 25 25 25 22 18
191 189 191 196 199 195 188 183 179 176 174 171 173 176 175 173 165 158 160 164 163 163 165 159 153 154 156 155 154 149 142 137 133 131 126 122 115 101 88 79 73 71 69 65 63 62 59 55 53 50 48 45 42 41 40 39 38 37 37 35 35 34 33 33 34 35 36 36 36 35 33 32 32 31 30 29 28 28 28 27 26 25 26 24 21
185 185 190 193 190 186 181 176 175 176 175 176 179 181 176 170 164 158 160 164 164 162 164 163 156 153 154 154 152 149 142 135 132 131 128 123 115 102 89 80 73 70 70 68 64 62 58 53 51 49 46 43 39 38 38 37 35 34 35 35 35 34 32 31 30 31 33 34 35 36 35 33 32 31 31 29 28 28 28 28 28 27 26 25 24
182 184 187 187 184 182 178 175 177 181 182 182 180 177 171 167 163 159 160 163 164 163 163 164 159 154 154 155 151 148 143 136 134 135 133 127 117 105 91 83 78 73 72 69 64 61 57 52 50 48 44 41 36 33 34 34 32 31 31 33 34 33 31 30 29 29 30 31 33 33 33 32 32 33 34 33 33 31 30 29 29 29 28 27 26
184 184 184 183 182 180 175 174 180 184 183 182 176 168 163 163 161 159 160 163 164 164 164 165 163 159 158 158 155 151 146 143 141 141 139 135 125 112 99 89 84 77 73 68 61 57 52 48 46 44 41 38 33 30 30 30 29 29 28 29 30 29 29 29 28 28 29 29 30 31 30 30 31 34 37 37 37 35 33 31 30 29 29 30 29
187 186 184 182 179 175 172 174 179 182 179 175 169 162 159 159 158 158 162 164 164 164 165 166 167 165 162 160 159 156 152 152 153 150 148 147 139 124 109 96 86 77 70 65 58 53 47 43 41 39 37 34 29 27 27 26 27 27 26 26 26 25 26 26 27 27 28 29 30 30 29 29 29 31 34 36 36 35 34 33 31 29 28 29 30
190 186 181 177 173 170 170 172 176 177 172 168 166 161 158 158 156 159 163 165 164 164 165 168 169 167 165 163 164 163 162 161 161 160 159 158 155 146 128 108 95 81 68 61 57 51 44 40 39 35 33 29 25 25 24 24 25 25 24 23 23 23 24 24 24 25 26 27 29 29 28 27 27 28 29 30 31 31 32 33 33 32 31 29 29
188 181 174 172 170 168 169 172 174 173 171 170 169 165 161 160 158 160 163 164 165 165 165 167 170 170 167 166 167 168 167 166 166 168 167 166 166 164 151 136 120 86 64 55 53 50 45 42 39 35 31 27 24 24 24 23 24 23 22 22 20 21 23 24 24 24 24 25 26 27 26 25 24 24 25 24 25 25 26 28 30 32 33 33 32
180 174 171 170 169 168 171 173 173 172 174 176 176 172 168 165 162 161 162 164 165 166 166 167 169 171 171 170 171 172 171 171 173 172 172 174 175 172 168 166 156 79 47 45 47 46 44 40 37 34 32 28 25 25 24 23 22 21 19 20 20 21 22 23 23 23 23 23 23 22 22 22 21 21 20 20 20 21 21 22 24 27 29 32 33
177 172 170 171 171 172 174 174 173 177 179 180 182 181 176 170 166 164 165 166 167 169 171 172 172 173 174 174 176 178 177 177 178 177 177 180 180 176 175 175 169 75 31 39 43 42 40 37 34 32 32 29 27 26 24 22 21 20 18 19 20 21 21 21 21 21 21 21 20 18 18 18 17 18 17 16 17 17 18 19 20 22 24 26 30
176 172 171 172 173 174 176 175 177 181 181 183 186 185 178 172 170 168 168 171 173 175 176 177 176 178 180 181 183 184 182 182 181 180 182 183 184 182 179 171 166 147 43 41 40 39 37 35 32 29 29 29 27 25 23 21 20 18 18 18 20 21 21 20 20 20 20 20 18 17 16 15 15 15 15 15 15 15 15 16 18 19 20 22 25
174 172 172 173 174 175 177 179 181 181 181 183 185 183 176 170 168 167 167 168 172 175 176 177 177 178 183 187 188 186 184 184 182 182 185 186 186 188 182 174 182 191 67 41 34 35 35 35 34 32 29 29 27 24 20 18 16 15 15 16 17 19 19 18 18 19 20 19 18 17 16 15 14 14 14 14 14 13 12 13 14 15 17 19 21
174 174 173 173 176 178 179 181 181 181 181 180 178 176 172 169 168 166 160 153 148 149 155 167 175 178 179 182 180 177 182 187 186 186 187 187 186 188 190 197 210 209 113 44 35 37 42 42 41 38 32 27 25 21 16 13 11 10 11 12 13 14 15 15 15 15 16 17 16 15 14 14 13 13 13 14 14 13 13 12 12 12 14 14 16
176 176 175 176 179 180 181 180 180 181 180 177 175 174 171 169 167 162 153 146 140 138 139 148 165 174 176 177 177 178 181 185 187 188 187 185 184 186 198 210 209 187 135 69 55 55 55 52 47 42 34 26 21 17 12 10 8 7 7 9 9 9 10 10 11 11 12 13 13 12 12 12 12 12 12 12 12 13 14 14 13 13 13 13 12
179 179 178 179 180 180 181 181 180 181 179 176 176 178 176 173 168 162 157 153 149 148 147 147 157 169 176 178 183 186 184 183 187 188 185 182 182 187 197 201 192 178 163 78 55 51 50 46 40 34 27 19 17 13 8 6 6 4 5 7 7 6 6 6 7 7 6 6 6 7 8 10 11 11 10 9 10 11 13 14 14 14 13 13 12
183 181 180 181 181 181 182 183 184 185 182 178 178 182 183 181 174 168 166 166 165 167 169 166 164 171 178 180 182 185 185 186 188 187 182 179 181 184 187 189 189 192 211 271 5 26 31 30 26 22 16 11 8 6 3 2 2 1 1 2 3 3 2 2 3 3 2 1 1 1 3 5 6 7 8 8 8 8 9 10 11 12 13 13 13
188 185 182 182 183 184 186 187 188 188 186 185 184 184 188 188 182 175 174 175 176 179 183 183 179 179 182 183 179 178 184 188 187 184 180 179 181 184 186 192 200 211 231 267 313 2 22 26 22 16 12 7 3 1 360 360 360 0 1 2 1 2 3 3 3 3 2 1 359 358 358 359 360 1 3 4 4 4 5 5 6 7 8 9 10
191 189 188 187 188 189 190 191 190 190 190 191 191 190 190 190 188 185 184 184 185 188 191 192 189 185 185 186 181 180 184 186 183 182 183 183 186 192 197 203 206 214 230 244 77 55 45 39 30 20 14 10 6 4 4 4 4 5 7 6 6 7 9 11 11 9 6 4 1 359 358 356 355 356 357 358 359 360 360 0 1 1 1 2 3
192 191 191 193 194 194 193 193 194 194 194 194 194 194 193 192 193 193 193 194 195 196 196 198 197 193 191 190 185 183 184 184 183 185 190 193 197 203 208 209 205 202 196 158 111 83 63 51 41 32 25 19 14 12 13 14 15 15 16 17 19 21 22 22 19 16 12 9 6 3 2 359 356 355 355 356 356 357 357 357 358 357 357 357 357
194 194 195 196 197 197 197 197 197 197 196 196 195 194 194 195 199 201 200 201 203 204 207 210 207 200 196 193 189 186 185 185 188 192 197 202 207 208 207 201 191 178 167 150 118 89 71 58 48 40 34 26 21 18 19 22 26 28 29 31 31 30 28 24 20 16 13 11 9 7 5 3 360 358 358 358 358 358 357 357 357 357 358 357 356
197 198 199 200 200 200 200 200 198 197 198 197 195 194 195 199 203 205 206 209 213 217 221 221 214 205 199 195 191 189 189 192 196 199 203 207 210 208 205 199 187 169 157 152 134 98 78 63 51 43 36 30 26 26 29 35 37 36 34 33 29 25 21 17 13 10 7 6 6 5 4 3 2 360 359 359 359 359 359 358 357 357 358 359 358
200 202 205 205 205 205 204 203 200 198 197 195 194 196 199 203 205 206 210 217 222 225 224 218 209 202 199 197 194 193 194 198 200 201 203 206 208 208 210 208 199 183 170 172 188 95 70 66 53 39 28 23 26 32 36 37 33 27 22 18 14 11 8 3 360 359 357 357 357 357 356 356 356 356 356 356 355 356 357 358 358 357 357 359 360
203 204 207 208 209 208 207 205 202 199 196 195 196 199 202 203 205 210 217 222 223 222 216 208 201 196 194 194 194 193 194 195 195 196 200 205 209 214 218 218 214 211 210 222 254 279 293 87 44 11 356 351 355 2 7 7 4 360 356 353 351 353 353 350 347 346 346 346 346 345 344 344 343 343 345 345 345 345 346 348 350 351 351 352 353
206 208 209 210 210 209 207 204 201 198 197 198 200 202 202 203 208 216 222 224 221 216 209 200 191 185 184 183 182 181 183 185 189 199 209 215 220 224 227 228 227 227 230 243 265 277 272 249 264 310 326 325 323 325 326 327 329 330 331 330 331 333 336 338 337 335 333 332 332 332 333 332 331 331 332 333 334 334 334 335 336 337 338 339 340
209 211 210 208 207 205 202 200 199 199 199 201 203 204 205 208 213 219 221 219 214 207 197 186 177 172 171 171 170 172 175 181 193 208 220 229 232 232 233 233 231 228 234 250 266 272 271 272 278 292 306 312 311 312 315 317 318 319 319 320 320 321 322 324 324 323 321 321 321 323 324 323 323 323 324 325 326 326 326 327 327 327 328 328 329
209 207 205 202 201 200 199 199 200 200 202 205 207 208 211 215 219 219 214 208 201 192 182 174 170 169 169 171 174 178 181 189 200 213 225 234 236 232 226 221 220 225 238 252 262 266 273 283 288 291 298 304 307 309 310 311 312 312 312 313 314 314 315 316 316 316 315 315 315 315 315 315 316 317 317 319 320 320 319 319 320 320 320 320 320
198 195 194 195 196 198 200 203 205 206 209 211 213 215 218 220 217 210 200 192 186 179 174 173 175 179 183 188 193 196 197 200 207 214 218 218 216 211 206 207 215 231 246 256 264 269 274 280 284 287 292 300 307 309 308 306 306 306 306 307 308 308 309 310 311 311 311 311 311 310 310 311 312 313 314 315 315 315 314 315 315 315 315 315 315
185 185 187 191 195 199 203 207 211 215 218 220 220 220 219 214 205 194 186 181 177 175 175 179 184 191 199 206 209 209 208 209 212 213 211 208 208 210 216 226 241 254 261 266 269 271 274 278 282 287 293 299 302 302 300 298 297 296 297 298 300 302 304 306 308 310 311 311 313 313 313 312 312 312 312 313 313 313 313 314 313 313 312 312 312
179 179 181 187 195 202 206 211 219 224 224 222 218 213 206 197 188 182 178 177 178 179 181 183 186 192 200 206 210 213 216 219 219 218 220 226 234 241 248 257 263 266 268 269 269 271 275 279 282 286 290 293 294 292 290 288 288 288 291 295 299 303 306 308 310 311 312 313 314 314 313 312 312 311 311 311 311 311 311 311 311 310 310 309 309
177 177 179 182 189 199 208 216 220 218 212 207 202 196 188 182 178 177 178 181 186 189 190 191 194 199 203 208 214 221 224 223 222 225 231 239 246 251 257 265 268 269 269 270 271 275 279 281 282 285 288 289 290 290 290 291 292 293 296 301 304 306 308 309 310 311 311 311 311 311 311 311 311 310 310 310 310 309 309 309 308 308 307 307 307
179 180 178 179 184 195 207 212 208 200 193 191 189 184 179 177 178 182 186 190 194 197 198 201 205 209 214 219 223 225 224 225 229 235 238 242 248 256 262 266 267 267 269 271 275 282 288 289 288 289 290 290 292 294 295 297 298 299 302 304 306 307 308 308 308 309 308 307 307 307 307 308 309 310 310 311 310 309 309 308 307 306 306 305 306
184 182 180 180 185 194 199 196 188 181 179 179 180 179 179 182 187 191 194 197 199 200 203 207 210 213 218 222 223 223 227 233 239 242 244 251 261 264 263 263 265 268 274 280 284 288 290 290 289 290 291 293 296 299 300 302 304 306 307 308 308 308 307 306 305 305 304 304 304 305 307 309 310 311 311 311 311 310 309 308 307 306 305 305 305
187 185 182 183 186 186 185 181 177 174 174 176 179 182 186 191 194 196 198 202 205 206 209 211 213 214 218 223 226 230 235 240 242 245 252 261 265 261 259 263 271 277 282 287 287 287 287 287 290 293 295 297 299 301 302 305 307 309 310 310 310 308 306 304 303 303 303 305 306 308 309 310 311 311 310 310 309 308 308 307 307 307 307 306 306
190 187 184 183 181 179 177 177 177 177 180 184 186 190 194 197 200 203 206 210 214 217 219 220 221 223 227 230 232 235 239 243 246 253 259 262 261 260 264 270 275 278 282 286 287 288 289 292 296 298 299 299 300 302 304 307 308 308 308 308 306 305 304 304 304 305 306 308 309 310 310 310 309 309 308 308 307 307 307 308 308 308 308 308 308